Regional Weather Roundup
Issued by NWS

Home | Current Version | Previous Version | Graphics & Text | Print | Product List | Glossary On
Versions: 1 2 3 4 5 6 7 8 9 10 11 12 13 14 15 16 17 18 19 20 21 22 23 24 25 26 27 28 29 30 31 32 33 34 35 36 37 38 39 40 41 42 43 44 45 46 47 48 49 50
000
ASUS43 KIND 250409
RWRIN

WEATHER ROUNDUP FOR INDIANA
NATIONAL WEATHER SERVICE INDIANAPOLIS IN
1200 AM EDT SUN SEP 25 2016

NOTE: "FAIR" INDICATES FEW OR NO CLOUDS BELOW 12,000 FEET WITH NO
SIGNIFICANT WEATHER AND/OR OBSTRUCTIONS TO VISIBILITY.

* - STATION DOES NOT REPORT WEATHER SUCH AS PRECIPITATION OR FOG.

+ - STATION NOT QUALITY CONTROLLED BY THE NATIONAL WEATHER SERVICE.
    USE DATA WITH CAUTION...ESPECIALLY DEWPOINT AND RELATIVE
    HUMIDITY OBSERVATIONS.

INZ001>003-010>013-019-020-250500-
NORTHWEST INDIANA

CITY           SKY/WX    TMP DP  RH WIND       PRES   REMARKS
GARY /AIRPORT/ CLEAR     68  65  90 E5        30.14S
KNOX *+        CLEAR     64  45  48 E6        30.15S
LA PORTE +     CLEAR     66  66 100 E3        30.16S
MICHIGAN CITY+ CLEAR     64  61  88 MISG      30.15S
MONTICELLO +   CLEAR     68  61  78 E5        30.13S
RENSSELAER +   CLEAR     66  64  94 E5        30.14R
VALPARAISO     CLEAR     63  61  93 E6        30.15S

$$

LMZ046-743>745-250500-
SOUTHERN LAKE MICHIGAN

STATION/POSITION TIME  TEMP    WIND        PRES    WAVE
                       AIR SEA DIR/SP/G            HT
                 (UTC) (F)     (DEG/KT/KT) (MB)    (FT)
BURNS HARBOR     0311   65      70/  7/  9 1020.7S
MICHIGAN CITY    0300   67      50/  7/  8   N/A
5NW MICH CITY    0400   67 70  100/  8/  8   N/A     1

$$

INZ004-005-014>016-021>024-250500-
NORTH CENTRAL INDIANA

CITY           SKY/WX    TMP DP  RH WIND       PRES   REMARKS
GOSHEN         CLEAR     63  56  78 E8        30.18R
LOGANSPORT +   CLEAR     64  61  88 E7        30.15R
PERU/GRISSOM   CLEAR     67  60  78 E9        30.14R
ROCHESTER +    CLEAR     64  63  94 E6        30.16S
SOUTH BEND     CLEAR     66  58  75 SE9       30.17S
WARSAW +       CLEAR     63  54  72 E9        30.17S

$$

INZ006>009-017-018-025>027-250500-
NORTHEAST INDIANA

CITY           SKY/WX    TMP DP  RH WIND       PRES   REMARKS
ANGOLA *+        N/A     59  48  67 SE6       30.19S
AUBURN +       CLEAR     61  54  77 E6        30.20S
FORT WAYNE     CLEAR     62  56  80 E8        30.19R
HUNTINGTON +   CLEAR     62  58  87 E3        30.17R
KENDALLVILLE + CLEAR     60  55  84 E6        30.19S

$$

INZ028-029-035-036-043>045-051>053-250500-
WEST CENTRAL INDIANA

CITY           SKY/WX    TMP DP  RH WIND       PRES   REMARKS
CRAWFORDSVL +  CLEAR     67  67 100 E5        30.12S
GREENCASTLE +  CLEAR     68  68 100 CALM      30.13R
LAFAYETTE      CLEAR     68  65  90 E9        30.12R
TERRE HAUTE    CLEAR     72  67  84 E6        30.10R

$$

INZ030>032-037>040-046>048-054>057-064-065-250500-
CENTRAL INDIANA

CITY           SKY/WX    TMP DP  RH WIND       PRES   REMARKS
FISHERS *+     CLEAR     68  66  94 CALM      30.14R
GREENWOOD *+   CLEAR     70  68  94 E3        30.14R
INDIANAPOLIS   CLEAR     72  65  78 E6        30.12R
-EAGLE CREEK   CLEAR     71  65  81 E3        30.13R
MARION +       CLEAR     65  58  79 E8        30.16R
MT COMFORT *+  CLEAR     66  63  88 CALM      30.14R
SHELBYVILLE    CLEAR     69  64  84 E5        30.12R
ZIONSVILLE +   CLEAR     66  63  91 CALM      30.15R

$$

INZ033-034-041-042-049-050-058-059-250500-
EAST CENTRAL INDIANA

CITY           SKY/WX    TMP DP  RH WIND       PRES   REMARKS
MUNCIE         CLEAR     66  60  81 E7        30.16R

$$

INZ060-061-067>069-081>083-085>088-250500-
SOUTHWEST INDIANA

CITY           SKY/WX    TMP DP  RH WIND       PRES   REMARKS
EVANSVILLE     CLEAR     72  67  84 NE3       30.07S
HUNTINGBURG *+   N/A     72  64  78 E3        30.08S
WASHINGTON +   CLEAR     70  70  99 MISG      30.08R

$$

INZ062-063-066-070>080-084-089>092-250500-
SOUTH CENTRAL AND SOUTHEAST INDIANA

CITY           SKY/WX    TMP DP  RH WIND       PRES   REMARKS
BLOOMINGTON    CLEAR     72  67  84 E6        30.12R
MADISON *+     CLEAR     72  64  78 E3        30.13S
NORTH VERNON + CLEAR    N/A N/A N/A E5        30.12S
SEYMOUR +      CLEAR     70  66  88 CALM      30.11R

$$




USA.gov is the U.S. government's official web portal to all federal, state and local government web resources and services.